Temperature
17 17 17 17 17 17 17 17 17 16 16 16 17 17 16 17 17 17 16 17 17 16 16 16 16 16 16 16 16 16 16 16 16 16 16 16 16 16 16 16 15 15 15
17 17 17 17 17 17 17 17 17 16 17 17 17 16 17 16 16 16 16 17 17 17 16 16 16 16 16 16 16 16 16 16 16 16 16 16 16 16 16 16 15 15 15
17 17 17 17 16 16 17 17 16 16 17 17 17 17 17 16 16 16 16 16 16 16 16 16 16 16 16 16 16 16 16 16 16 16 16 16 16 16 16 15 15 15 15
17 17 17 17 16 16 16 16 17 17 17 17 17 17 17 16 16 16 16 16 16 16 16 16 16 16 16 16 16 16 16 16 16 16 16 16 16 16 16 15 15 15 15
17 17 17 17 17 16 16 17 17 17 17 17 17 17 17 17 16 16 16 16 16 16 16 16 16 16 16 16 16 16 16 16 16 16 16 16 16 16 15 15 15 15 15
17 17 16 17 16 16 16 16 16 16 17 17 17 17 17 17 17 16 16 16 16 16 16 16 16 16 16 16 16 16 16 16 16 16 16 16 15 15 15 15 15 15 15
17 17 17 17 17 16 16 16 16 16 16 16 17 17 17 17 17 16 17 17 16 16 16 16 16 16 16 16 16 16 16 16 16 15 15 15 15 15 15 15 15 15 15
17 17 17 16 17 17 16 16 16 17 17 16 17 17 18 17 17 17 17 16 17 16 16 16 16 16 16 16 16 16 16 16 16 15 15 15 15 15 15 15 15 15 15
17 17 16 17 17 16 16 16 16 16 17 17 17 17 18 18 18 17 17 17 16 17 17 16 16 16 16 16 16 16 16 16 16 15 15 15 15 15 15 15 15 15 15
17 16 16 17 17 17 16 16 16 16 16 17 17 17 17 17 18 18 17 17 17 16 17 17 17 16 16 16 16 16 16 16 16 16 15 15 15 15 15 15 15 15 15
17 16 16 17 17 16 16 16 16 16 16 17 17 17 17 17 17 18 18 18 17 17 17 17 17 17 16 16 16 16 16 16 16 16 16 15 15 15 15 15 15 15 15
16 16 16 17 17 16 16 16 16 16 16 16 16 17 17 17 17 18 18 18 18 18 17 17 17 17 16 16 16 16 16 16 16 16 16 15 15 15 15 15 15 15 15
16 16 16 17 16 16 16 16 16 16 16 16 16 16 17 17 17 17 18 18 18 18 17 17 17 16 16 16 16 16 16 16 16 16 16 16 16 15 15 15 15 15 15
16 16 17 17 16 16 16 16 16 16 16 16 16 16 16 16 17 17 17 18 18 18 18 17 17 16 16 16 16 16 16 16 16 16 16 16 16 15 15 15 15 15 15
16 16 17 16 16 16 16 16 16 15 16 16 16 16 16 16 16 16 16 17 17 18 18 17 17 16 16 16 16 15 15 15 16 16 16 15 15 15 15 15 15 15 15
16 16 16 16 16 16 16 16 15 15 15 15 16 15 15 16 16 16 16 16 16 17 17 17 16 16 15 15 15 15 15 15 15 15 15 15 15 15 15 15 15 15 14
16 16 16 16 16 16 16 16 15 15 15 15 15 15 15 15 15 16 16 16 16 16 16 16 16 15 15 15 15 14 14 14 14 15 15 15 15 15 15 14 14 14 14
16 16 16 16 16 15 15 15 15 15 15 15 15 15 15 15 15 15 15 15 15 15 15 15 15 15 14 14 14 14 14 14 14 14 14 14 14 14 14 14 14 14 13
16 16 16 16 15 15 15 15 15 15 15 15 15 15 15 14 14 14 14 15 15 15 14 14 14 14 13 13 13 13 13 13 13 13 13 13 13 13 13 13 13 13 13
16 16 16 16 15 15 15 15 15 15 15 15 15 14 14 14 14 14 14 14 14 14 14 14 14 13 13 12 12 12 12 12 12 12 12 12 12 12 12 12 12 12 11
15 15 15 15 15 15 15 15 15 15 15 14 14 14 14 14 14 14 13 13 13 13 13 13 13 13 12 12 11 11 11 11 11 11 10 11 10 10 10 10 10 10 10
15 15 15 15 15 15 15 15 15 14 14 14 14 14 14 13 13 13 13 13 13 12 12 12 12 11 11 10 10 10 10 10 10 10 10 10 10 9 9 9 9 9 9
15 15 15 15 15 14 14 14 14 14 14 13 13 13 13 13 12 12 12 12 12 12 11 11 10 10 9 9 9 9 9 9 9 9 8 9 9 9 8 8 8 8 8
15 15 14 14 14 14 14 14 14 13 13 13 12 12 12 12 11 11 11 11 11 10 10 10 9 9 9 9 8 8 8 8 8 8 8 8 8 8 8 7 7 7 7
14 14 14 14 14 14 13 13 13 13 12 12 11 11 11 11 11 10 10 10 9 9 9 9 8 8 8 8 8 7 7 7 8 8 7 6 7 7 7 7 7 6 6
14 14 13 13 13 13 12 12 12 12 11 11 10 10 10 10 9 9 9 8 8 7 7 7 7 7 6 6 6 6 6 6 6 7 6 5 6 6 6 7 6 6 5
Wind_Speed
7 7 6 5 6 7 7 6 5 6 5 5 5 5 4 4 4 5 9 10 9 8 9 8 8 7 7 7 7 7 7 7 7 7 7 6 7 6 5 5 5 5 5
7 6 6 6 5 6 6 6 6 6 5 4 4 5 5 5 5 4 7 10 10 8 8 8 8 8 8 8 7 8 7 7 8 8 7 7 7 7 6 6 5 5 5
7 6 6 6 6 6 6 5 6 5 5 5 5 5 4 4 5 4 5 6 9 11 9 8 8 8 8 8 8 8 8 8 8 9 9 9 8 7 7 7 7 6 6
8 7 6 6 6 6 7 5 5 5 4 3 4 4 4 4 5 5 5 5 5 7 11 10 8 8 8 8 8 9 9 9 9 10 10 10 10 10 9 9 8 8 8
9 8 6 5 7 6 6 6 5 5 5 4 4 4 4 4 4 5 4 5 5 5 6 11 10 9 9 9 8 8 9 10 11 11 11 12 12 12 11 11 11 10 10
9 8 7 7 8 6 5 4 4 3 3 4 3 3 3 3 4 4 5 6 6 6 6 6 9 11 11 9 9 8 9 10 11 12 12 12 12 13 13 13 13 13 12
9 8 6 7 7 6 6 6 5 6 5 4 4 4 4 4 4 4 4 4 5 5 5 6 6 5 8 12 10 9 8 9 10 11 12 12 13 13 13 14 15 15 14
9 9 7 7 8 6 6 6 6 5 4 5 4 3 4 5 5 5 5 5 4 5 6 7 5 5 5 6 8 10 9 9 9 10 12 12 13 13 14 14 15 16 16
10 9 9 8 7 8 7 8 8 7 5 5 4 4 3 3 4 5 5 5 4 4 4 4 6 5 6 5 5 10 10 9 9 9 10 11 13 13 13 14 14 15 15
11 11 10 9 8 8 7 8 8 7 6 5 5 4 3 2 2 3 6 6 5 5 3 3 4 5 5 5 4 2 6 7 8 8 8 9 10 12 12 13 13 14 14
10 11 10 9 8 8 8 7 7 8 7 6 5 5 4 3 5 3 2 4 5 5 4 4 3 2 3 4 3 3 6 5 6 6 7 7 8 9 10 11 12 13 13
9 11 11 9 9 8 8 8 8 9 7 6 5 5 5 4 4 4 3 4 4 4 3 2 2 2 3 3 2 5 4 3 4 4 5 6 6 7 7 8 10 11 12
9 11 10 9 9 8 8 8 8 7 7 7 7 6 5 4 3 4 4 3 2 3 3 3 2 1 2 1 2 3 3 3 3 4 5 5 6 6 7 7 8 9 10
9 10 10 10 10 10 9 8 8 8 6 7 7 5 4 4 4 4 3 3 4 4 4 3 2 2 0 1 2 2 3 4 3 3 4 5 6 6 7 7 8 8 9
8 10 10 10 9 9 9 8 7 7 7 7 7 7 6 4 4 3 3 4 5 4 3 4 3 2 1 1 2 2 1 3 1 1 2 3 4 5 6 6 7 7 8
9 10 10 10 9 9 9 8 8 7 7 6 5 5 4 4 3 4 4 4 4 5 4 1 2 1 2 2 2 2 1 4 4 2 2 3 4 4 5 5 6 6 7
10 10 10 11 10 10 9 8 8 8 8 7 6 6 5 4 4 4 4 4 4 4 5 3 2 1 1 3 3 3 3 2 2 5 4 4 4 4 4 4 5 5 6
10 10 10 10 10 10 10 9 9 8 8 8 7 6 6 5 4 4 3 4 3 3 5 4 2 1 0 1 2 3 3 3 2 7 6 5 4 5 5 5 5 5 6
9 9 10 10 10 10 10 9 8 8 7 6 6 6 6 5 4 3 3 3 3 3 3 3 3 0 1 1 2 2 2 3 4 3 4 4 4 4 4 5 5 6 7
9 9 9 9 9 9 9 9 8 7 6 5 4 4 3 4 4 3 3 2 2 2 2 3 2 1 1 1 3 3 3 2 4 4 4 2 1 2 2 3 4 6 7
9 9 9 8 8 7 8 8 8 7 7 6 5 5 5 7 7 4 1 1 0 1 1 2 1 1 1 3 3 4 5 4 3 3 5 5 3 3 2 2 4 7 8
8 9 9 9 8 6 8 9 8 7 7 7 7 7 8 9 11 12 13 13 9 4 2 2 2 2 3 4 4 5 5 6 4 4 7 7 5 5 6 5 6 6 7
8 8 8 8 7 8 11 10 8 7 7 6 6 6 6 7 8 9 11 13 14 14 10 5 5 5 4 5 6 6 5 6 6 7 7 7 6 6 7 5 3 2 5
8 8 8 8 8 9 12 12 11 8 8 8 7 7 7 7 7 7 9 10 11 10 9 8 8 7 7 7 6 5 5 5 5 3 5 7 7 8 9 9 3 3 5
8 8 8 9 10 10 11 12 11 10 10 11 9 9 9 9 9 7 9 10 9 9 13 14 12 9 8 8 8 6 6 6 7 6 5 7 8 10 10 9 5 4 8
9 9 10 9 10 10 10 10 10 9 11 11 10 11 13 12 10 8 8 8 8 6 5 5 5 3 3 4 4 6 7 7 7 6 5 7 9 10 9 7 9 12 12
Wind_Direction
170 161 159 165 171 157 164 172 164 155 160 162 166 153 158 146 141 142 138 157 170 173 174 172 176 177 178 178 177 177 177 173 172 171 169 169 169 168 166 166 171 173 174
168 169 168 171 171 172 164 169 162 168 174 159 167 153 165 161 155 165 149 158 175 182 185 187 187 188 191 192 192 194 196 192 190 189 188 187 186 188 190 189 190 192 194
172 181 174 179 175 165 162 179 168 171 171 168 167 164 166 162 156 173 167 163 169 181 192 197 200 200 203 205 204 204 206 205 205 205 204 203 201 204 207 208 209 209 209
177 191 185 182 174 180 178 174 186 178 174 178 168 177 161 168 167 178 180 179 178 175 181 191 204 210 213 217 216 215 213 214 214 216 216 215 213 215 217 218 220 221 220
184 195 194 175 182 188 188 194 174 193 180 183 181 175 183 179 177 187 185 183 184 195 180 175 196 209 216 223 225 224 221 220 220 222 223 223 222 223 224 226 228 230 230
190 198 194 187 194 190 190 193 171 194 195 192 201 154 183 181 196 187 203 186 190 202 203 187 192 198 207 220 228 231 230 225 225 226 228 229 229 228 229 231 233 236 237
191 202 201 185 200 192 191 186 190 183 192 182 190 182 187 203 202 194 212 211 197 200 201 198 213 209 192 202 214 225 230 229 229 230 232 234 235 233 234 236 238 240 241
198 201 207 200 196 189 190 193 197 205 188 192 216 204 194 192 206 197 193 202 206 198 201 201 202 211 239 203 182 202 220 229 234 234 235 236 237 238 238 239 241 242 243
203 209 204 210 199 202 192 195 197 207 201 197 225 238 227 201 177 179 199 196 200 211 212 196 210 207 222 233 202 192 206 224 234 240 241 240 240 240 241 243 244 244 245
204 205 206 208 206 209 193 199 201 208 209 206 201 237 285 341 254 177 188 186 188 202 217 223 209 194 212 226 210 194 197 221 234 242 247 247 244 243 244 245 246 248 248
203 204 204 203 205 211 202 204 191 210 210 218 210 203 210 218 249 257 187 183 186 190 191 210 227 222 212 226 223 175 175 213 233 243 250 252 250 249 250 248 249 250 250
200 202 203 202 204 206 199 200 201 203 217 222 232 222 215 219 230 234 224 213 193 171 173 185 214 211 217 223 192 111 154 207 230 244 253 257 256 255 256 253 254 256 256
198 197 200 199 201 202 202 200 201 208 205 210 220 225 231 240 247 246 247 233 218 179 174 194 177 202 211 206 130 131 173 206 230 243 252 256 258 260 262 260 260 262 263
201 190 196 197 198 201 202 198 201 199 198 205 209 213 226 230 236 242 251 255 246 221 199 195 171 176 188 247 80 219 191 170 214 241 253 259 264 267 268 268 268 270 273
195 189 192 195 197 197 197 194 202 196 192 202 201 200 222 217 228 242 254 265 270 266 229 180 209 137 244 59 31 270 260 119 160 241 271 279 282 281 279 277 276 278 280
196 191 192 191 190 189 190 196 194 195 198 204 208 203 218 221 218 226 239 251 266 277 276 226 207 155 9 311 72 330 306 118 107 78 15 332 315 306 300 294 291 292 293
193 193 193 190 189 188 186 192 200 192 198 197 197 197 204 226 224 224 227 238 244 254 259 255 205 130 48 332 7 329 302 277 106 93 63 28 4 350 337 324 316 316 314
191 193 191 188 189 189 189 191 196 193 195 197 196 194 199 200 209 235 237 240 246 262 264 267 257 214 134 327 334 304 320 319 339 95 84 60 42 28 19 9 359 353 348
186 187 185 184 185 185 187 189 189 190 190 191 194 195 201 202 200 208 233 241 242 239 259 262 249 296 271 347 306 293 312 331 310 111 106 97 70 50 42 35 27 24 16
177 175 176 178 179 182 182 182 181 176 168 166 170 170 175 180 181 191 199 222 247 248 232 250 253 244 275 350 314 316 312 322 320 327 356 342 132 159 132 88 51 33 18
171 168 167 166 166 172 177 172 167 162 157 153 140 127 113 94 72 63 75 114 189 250 245 247 268 291 3 360 345 330 326 320 319 346 328 312 301 297 279 159 81 34 13
158 155 157 156 158 161 130 137 153 150 148 144 134 123 113 101 91 79 68 59 47 40 19 355 8 30 25 9 353 333 334 326 321 4 330 315 317 313 315 322 49 30 1
146 144 146 144 140 124 118 125 133 143 139 131 128 129 121 110 111 107 95 86 68 57 48 40 52 38 32 19 354 342 349 334 325 327 320 309 316 313 309 322 80 9 337
135 134 132 130 125 115 112 116 118 123 114 108 106 112 113 108 102 106 103 90 75 61 56 59 62 50 42 20 357 336 323 307 287 300 335 312 320 316 313 304 230 220 290
127 124 121 120 117 111 109 118 122 118 110 102 96 92 99 98 79 84 102 100 93 87 82 84 82 80 68 43 9 346 343 327 324 328 353 323 320 318 309 298 285 240 273
119 116 111 108 110 108 102 107 117 121 115 108 97 85 76 83 72 64 95 98 94 85 80 91 95 106 64 58 33 2 346 332 326 322 3 332 321 323 313 310 321 316 306
Height
1566 1567 1569 1570 1573 1574 1575 1577 1579 1580 1581 1582 1584 1585 1586 1587 1588 1589 1588 1588 1589 1590 1591 1591 1592 1593 1594 1594 1595 1596 1596 1597 1597 1598 1598 1599 1599 1599 1600 1600 1600 1601 1601
1565 1567 1568 1570 1573 1574 1576 1577 1579 1580 1581 1583 1584 1585 1586 1587 1588 1588 1589 1589 1589 1590 1591 1591 1592 1593 1594 1594 1595 1596 1596 1597 1597 1598 1598 1599 1599 1599 1600 1600 1600 1601 1601
1564 1566 1569 1570 1572 1574 1575 1577 1578 1580 1581 1582 1583 1585 1586 1587 1587 1588 1589 1590 1590 1590 1590 1591 1592 1593 1593 1594 1594 1595 1596 1596 1597 1597 1598 1598 1599 1599 1599 1600 1600 1600 1600
1563 1565 1568 1570 1571 1573 1575 1576 1579 1580 1581 1582 1583 1584 1585 1586 1587 1588 1589 1589 1590 1591 1590 1590 1591 1592 1592 1593 1594 1594 1595 1595 1596 1596 1597 1597 1598 1598 1598 1599 1599 1599 1600
1561 1564 1567 1569 1570 1573 1575 1576 1578 1580 1581 1582 1583 1583 1585 1586 1586 1587 1588 1589 1589 1590 1590 1590 1590 1591 1591 1592 1592 1593 1593 1594 1594 1595 1595 1596 1596 1597 1597 1597 1598 1598 1598
1560 1563 1566 1567 1570 1572 1573 1575 1576 1578 1580 1581 1582 1583 1584 1585 1586 1587 1587 1588 1588 1589 1590 1590 1590 1590 1590 1591 1591 1591 1592 1592 1593 1593 1594 1594 1594 1595 1595 1595 1596 1596 1597
1559 1561 1565 1566 1568 1571 1572 1574 1575 1577 1579 1580 1582 1583 1583 1584 1585 1585 1586 1587 1588 1588 1589 1589 1589 1590 1590 1589 1590 1590 1590 1590 1591 1591 1592 1592 1592 1593 1593 1593 1594 1594 1594
1557 1560 1563 1565 1567 1569 1570 1572 1574 1576 1578 1579 1581 1581 1582 1584 1583 1584 1585 1585 1586 1587 1587 1588 1588 1588 1589 1589 1588 1588 1588 1588 1589 1589 1590 1590 1590 1590 1590 1591 1591 1591 1591
1555 1558 1560 1563 1565 1567 1569 1570 1572 1575 1577 1578 1579 1580 1581 1580 1582 1583 1583 1584 1585 1585 1586 1587 1587 1587 1587 1588 1587 1587 1587 1587 1587 1587 1587 1587 1587 1587 1587 1588 1588 1588 1588
1553 1555 1558 1560 1562 1565 1567 1569 1571 1573 1575 1576 1577 1578 1579 1579 1580 1581 1582 1582 1583 1584 1585 1585 1586 1586 1586 1586 1586 1585 1585 1585 1585 1585 1585 1585 1585 1585 1585 1585 1585 1585 1585
1550 1553 1555 1558 1560 1563 1565 1566 1568 1571 1573 1574 1576 1577 1578 1579 1579 1580 1580 1581 1582 1583 1583 1583 1584 1585 1584 1584 1584 1584 1583 1583 1583 1583 1583 1583 1583 1583 1582 1582 1582 1582 1581
1546 1549 1552 1555 1557 1560 1562 1564 1566 1568 1570 1572 1574 1575 1577 1578 1578 1579 1579 1580 1580 1581 1581 1582 1582 1583 1583 1583 1582 1582 1581 1581 1581 1581 1581 1581 1580 1580 1580 1579 1579 1579 1578
1543 1546 1549 1552 1554 1557 1559 1561 1563 1566 1568 1569 1571 1573 1575 1576 1577 1578 1578 1578 1579 1580 1580 1580 1580 1581 1581 1581 1580 1579 1579 1579 1579 1579 1579 1578 1578 1578 1577 1577 1576 1575 1575
1540 1543 1546 1548 1551 1554 1557 1559 1562 1563 1565 1567 1569 1570 1572 1574 1575 1576 1577 1578 1578 1578 1578 1579 1578 1579 1579 1579 1578 1577 1577 1576 1576 1576 1576 1576 1575 1575 1574 1573 1573 1572 1571
1537 1539 1542 1545 1548 1551 1554 1556 1559 1560 1562 1564 1567 1568 1570 1571 1572 1574 1575 1576 1577 1576 1576 1576 1577 1576 1576 1576 1575 1575 1575 1573 1573 1573 1572 1572 1572 1571 1570 1570 1569 1568 1567
1534 1536 1539 1542 1545 1548 1551 1553 1556 1558 1560 1562 1564 1565 1567 1569 1570 1571 1572 1573 1574 1575 1574 1574 1574 1574 1573 1574 1572 1572 1571 1570 1569 1569 1569 1568 1567 1567 1566 1565 1564 1563 1562
1530 1533 1536 1539 1542 1545 1548 1550 1553 1555 1557 1559 1561 1563 1564 1566 1567 1569 1570 1571 1571 1572 1572 1572 1572 1571 1570 1570 1569 1569 1568 1567 1566 1565 1564 1563 1563 1562 1561 1560 1559 1558 1557
1528 1531 1533 1536 1539 1542 1545 1548 1550 1553 1555 1557 1559 1560 1562 1563 1564 1566 1567 1568 1568 1569 1569 1569 1569 1568 1567 1566 1565 1565 1565 1565 1563 1561 1559 1559 1558 1556 1555 1554 1553 1552 1551
1525 1528 1531 1534 1536 1539 1542 1545 1548 1550 1552 1555 1556 1558 1559 1561 1561 1563 1564 1565 1565 1566 1566 1566 1566 1565 1565 1563 1562 1562 1562 1560 1560 1558 1555 1554 1553 1551 1550 1549 1547 1546 1544
1522 1525 1528 1531 1534 1537 1540 1542 1545 1548 1550 1552 1553 1555 1556 1558 1559 1560 1561 1561 1562 1562 1562 1563 1563 1562 1562 1560 1560 1559 1559 1557 1556 1555 1552 1550 1548 1547 1545 1543 1542 1540 1538
1520 1523 1525 1528 1531 1534 1537 1540 1542 1545 1547 1549 1550 1552 1554 1555 1556 1557 1558 1558 1559 1560 1560 1560 1560 1560 1559 1558 1557 1556 1556 1554 1552 1551 1549 1548 1546 1544 1542 1539 1536 1534 1533
1518 1521 1523 1526 1529 1532 1534 1537 1540 1542 1544 1546 1548 1549 1551 1552 1553 1554 1555 1555 1556 1557 1557 1557 1557 1557 1556 1555 1554 1553 1552 1551 1550 1548 1545 1544 1543 1541 1539 1537 1533 1530 1528
1517 1520 1522 1524 1527 1529 1532 1535 1537 1539 1542 1543 1545 1547 1549 1550 1551 1551 1552 1553 1553 1553 1554 1554 1554 1554 1553 1552 1551 1550 1549 1547 1545 1543 1542 1540 1539 1537 1535 1532 1528 1526 1523
1515 1518 1521 1523 1526 1528 1530 1533 1536 1538 1540 1541 1543 1545 1547 1548 1549 1550 1551 1551 1551 1551 1551 1551 1551 1550 1550 1549 1548 1548 1546 1544 1543 1541 1538 1538 1535 1533 1531 1528 1524 1521 1519
1514 1517 1520 1522 1524 1526 1529 1532 1534 1536 1538 1540 1542 1544 1545 1546 1547 1548 1549 1549 1549 1549 1549 1549 1549 1548 1547 1546 1546 1545 1544 1543 1542 1540 1537 1535 1532 1529 1526 1524 1522 1517 1514
1513 1516 1519 1521 1524 1526 1528 1530 1533 1535 1536 1539 1541 1543 1544 1545 1546 1547 1548 1548 1549 1549 1549 1548 1548 1547 1547 1545 1544 1543 1542 1541 1540 1538 1535 1532 1529 1526 1523 1521 1518 1515 1511